Weather History for KTCL - July, 2013

Change the Weather History Date:

Sunday, July 28, 2013

  Actual Average Record
Temperature  
Mean Temperature 81 °F 82 °F  
Max Temperature 90 °F 92 °F 107 °F (1952)
Min Temperature 71 °F 72 °F 62 °F (1994)
Cooling Degree Days 15    
Growing Degree Days 30 (Base 50)    
Moisture  
Dew Point 71 °F    
Average Humidity 73    
Maximum Humidity 93    
Minimum Humidity 52    
Precipitation  
Precipitation 0.00 in 0.12 in 2.16 in (1976)
Month to date precipitation 6.83 4.02  
Year to date precipitation 34.47 32.19  
Sea Level Pressure  
Sea Level Pressure 29.98 in    
Wind  
Wind Speed 3 mph (North)    
Max Wind Speed 10 mph    
Max Gust Speed 14 mph    
Visibility 9 miles    
Events      
T = Trace of Precipitation, MM = Missing Value Source: NWS Daily Summary

Daily Weather History Graph

Daily Weather History Graph

Search for Another Location

Airport or City:

Trip Planner

Search our weather history database for the weather conditions in past years. The results will help you decide how hot, cold, wet, or windy it might be!

Date:

Astronomy

Jul. 28, 2013 Rise Set
Actual Time 6:00 AM CDT 7:52 PM CDT
Civil Twilight 5:33 AM CDT 8:19 PM CDT
Nautical Twilight 5:00 AM CDT 8:52 PM CDT
Astronomical Twilight 4:25 AM CDT 9:27 PM CDT
Moon 11:39 PM CDT (7/28) 12:18 PM CDT (7/28)
Length of Visible Light 14h 46m
Length of Day
13h 51m
Waning Gibbous, 60% of the Moon is Illuminated
Jul 28
Waning Gibbous
Jul 29
Last Quarter
Aug 6
New
Aug 14
First Quarter
Aug 20
Full

Hourly Weather History & Observations

Time (CDT) Temp. Heat Index Dew Point Humidity Pressure Visibility Wind Dir Wind Speed Gust Speed Precip Events Conditions
12:53 AM 73.9 °F - 71.1 °F 91% 29.93 in 8.0 mi Calm Calm - N/A   Scattered Clouds
1:53 AM 73.0 °F - 71.1 °F 93% 29.93 in 6.0 mi SSW 4.6 mph - N/A   Clear
2:53 AM 72.0 °F - 70.0 °F 93% 29.93 in 6.0 mi Calm Calm - N/A   Clear
3:53 AM 72.0 °F - 70.0 °F 93% 29.94 in 6.0 mi Calm Calm - N/A   Mostly Cloudy
4:53 AM 73.0 °F - 71.1 °F 93% 29.95 in 7.0 mi Calm Calm - N/A   Overcast
5:23 AM 71.6 °F - 69.8 °F 94% 29.97 in 6.0 mi Calm Calm - N/A   Mostly Cloudy
5:53 AM 72.0 °F - 70.0 °F 93% 29.96 in 6.0 mi Calm Calm - N/A   Clear
6:53 AM 73.0 °F - 70.0 °F 90% 29.96 in 7.0 mi North 3.5 mph - N/A   Clear
7:53 AM 77.0 °F - 71.1 °F 82% 29.97 in 9.0 mi NNE 4.6 mph - N/A   Clear
8:53 AM 80.1 °F 83.8 °F 72.0 °F 76% 29.98 in 10.0 mi NE 3.5 mph - N/A   Clear
9:53 AM 82.9 °F 88.0 °F 72.0 °F 69% 29.99 in 10.0 mi Variable 3.5 mph - N/A   Clear
10:53 AM 82.9 °F 87.5 °F 71.1 °F 67% 29.99 in 9.0 mi NE 4.6 mph - N/A   Clear
11:53 AM 86.0 °F 92.2 °F 72.0 °F 63% 29.99 in 8.0 mi NE 3.5 mph - N/A   Partly Cloudy
12:53 PM 87.1 °F 93.6 °F 72.0 °F 61% 29.99 in 10.0 mi Variable 5.8 mph - N/A   Partly Cloudy
1:53 PM 89.1 °F 95.0 °F 71.1 °F 55% 29.98 in 10.0 mi Calm Calm - N/A   Clear
2:53 PM 87.1 °F 92.8 °F 71.1 °F 59% 29.97 in 10.0 mi North 4.6 mph - N/A   Partly Cloudy
3:53 PM 89.1 °F 94.1 °F 70.0 °F 53% 29.96 in 10.0 mi North 5.8 mph - N/A   Partly Cloudy
4:53 PM 89.1 °F 95.0 °F 71.1 °F 55% 29.96 in 10.0 mi NW 6.9 mph - N/A   Clear
5:53 PM 89.1 °F 94.1 °F 70.0 °F 53% 29.97 in 10.0 mi NNW 4.6 mph - N/A   Clear
6:53 PM 86.0 °F 91.5 °F 71.1 °F 61% 29.98 in 10.0 mi NNW 4.6 mph - N/A   Clear
7:53 PM 82.9 °F 88.8 °F 73.0 °F 72% 29.99 in 10.0 mi North 4.6 mph - N/A   Clear
8:53 PM 80.1 °F 84.2 °F 73.0 °F 79% 30.00 in 10.0 mi North 3.5 mph - N/A   Clear
9:53 PM 78.1 °F - 73.9 °F 87% 30.02 in 9.0 mi Calm Calm - N/A   Clear
10:53 PM 78.1 °F - 72.0 °F 81% 30.03 in 10.0 mi NNE 6.9 mph - N/A   Clear
11:53 PM 75.9 °F - 71.1 °F 85% 30.05 in 10.0 mi Calm Calm - N/A   Clear